Datum;Zeit;Wirkleistung [kW]
01.01.2022;00:15:00;35,14
01.01.2022;00:30:00;35,02
01.01.2022;00:45:00;36,32
01.01.2022;01:00:00;35,3
01.01.2022;01:15:00;35,18
01.01.2022;01:30:00;35,4
01.01.2022;01:45:00;34,32
01.01.2022;02:00:00;33,68
01.01.2022;02:15:00;34,22
01.01.2022;02:30:00;33,08
01.01.2022;02:45:00;34,3
01.01.2022;03:00:00;34,42
01.01.2022;03:15:00;34,96
01.01.2022;03:30:00;34,24
01.01.2022;03:45:00;34,7
01.01.2022;04:00:00;33,68
01.01.2022;04:15:00;36,02
01.01.2022;04:30:00;33,66
01.01.2022;04:45:00;35,18
01.01.2022;05:00:00;33,52
01.01.2022;05:15:00;33,02
01.01.2022;05:30:00;35,46
01.01.2022;05:45:00;38,42
01.01.2022;06:00:00;51,9
01.01.2022;06:15:00;48,66
01.01.2022;06:30:00;49,04
01.01.2022;06:45:00;52,18
01.01.2022;07:00:00;54,94
01.01.2022;07:15:00;57,76
01.01.2022;07:30:00;60,46
01.01.2022;07:45:00;66,86
01.01.2022;08:00:00;62,66
01.01.2022;08:15:00;66,54
01.01.2022;08:30:00;62,72
01.01.2022;08:45:00;58,74
01.01.2022;09:00:00;59,86
01.01.2022;09:15:00;73,18
01.01.2022;09:30:00;81,96
01.01.2022;09:45:00;79,6
01.01.2022;10:00:00;68,16
01.01.2022;10:15:00;65,62
01.01.2022;10:30:00;65,4
01.01.2022;10:45:00;60,74
01.01.2022;11:00:00;63,48
01.01.2022;11:15:00;61,16
01.01.2022;11:30:00;50,58
01.01.2022;11:45:00;54,84
01.01.2022;12:00:00;54,82
01.01.2022;12:15:00;63,22
01.01.2022;12:30:00;53,74
01.01.2022;12:45:00;59,14
01.01.2022;13:00:00;51,68
01.01.2022;13:15:00;42,7
01.01.2022;13:30:00;43,08
01.01.2022;13:45:00;44,96
01.01.2022;14:00:00;42,36
01.01.2022;14:15:00;43
01.01.2022;14:30:00;44,64
01.01.2022;14:45:00;45,26
01.01.2022;15:00:00;51,12
01.01.2022;15:15:00;46,24
01.01.2022;15:30:00;42,46
01.01.2022;15:45:00;47,56
01.01.2022;16:00:00;46,76
01.01.2022;16:15:00;44,88
01.01.2022;16:30:00;48,24
01.01.2022;16:45:00;47,12
01.01.2022;17:00:00;47,16
01.01.2022;17:15:00;47,26
01.01.2022;17:30:00;44,54
01.01.2022;17:45:00;48
01.01.2022;18:00:00;55,24
01.01.2022;18:15:00;48,34
01.01.2022;18:30:00;46,38
01.01.2022;18:45:00;45,8
01.01.2022;19:00:00;45,1
01.01.2022;19:15:00;44,82
01.01.2022;19:30:00;43,14
01.01.2022;19:45:00;43,16
01.01.2022;20:00:00;42,88
01.01.2022;20:15:00;42,92
01.01.2022;20:30:00;41
01.01.2022;20:45:00;41,74
01.01.2022;21:00:00;42,52
01.01.2022;21:15:00;40,18
01.01.2022;21:30:00;39,3
01.01.2022;21:45:00;41,06
01.01.2022;22:00:00;39,48
01.01.2022;22:15:00;37,72
01.01.2022;22:30:00;38,64
01.01.2022;22:45:00;37,56
01.01.2022;23:00:00;36,48
01.01.2022;23:15:00;35,86
01.01.2022;23:30:00;36,06
01.01.2022;23:45:00;37,54
02.01.2022;00:00:00;36,52
02.01.2022;00:15:00;36,26
02.01.2022;00:30:00;35,38
02.01.2022;00:45:00;36,92
02.01.2022;01:00:00;37,26
02.01.2022;01:15:00;35,8
02.01.2022;01:30:00;33,82
02.01.2022;01:45:00;34,18
02.01.2022;02:00:00;34,6
02.01.2022;02:15:00;34,82
02.01.2022;02:30:00;35,22
02.01.2022;02:45:00;36,16
02.01.2022;03:00:00;35,72
02.01.2022;03:15:00;36,04
02.01.2022;03:30:00;35,3
02.01.2022;03:45:00;35,82
02.01.2022;04:00:00;35,86
02.01.2022;04:15:00;35,48
02.01.2022;04:30:00;35,42
02.01.2022;04:45:00;35,82
02.01.2022;05:00:00;36,94
02.01.2022;05:15:00;34,98
02.01.2022;05:30:00;35,54
02.01.2022;05:45:00;43,42
02.01.2022;06:00:00;56,3
02.01.2022;06:15:00;61,5
02.01.2022;06:30:00;67,12
02.01.2022;06:45:00;65,74
02.01.2022;07:00:00;56,36
02.01.2022;07:15:00;52,6
02.01.2022;07:30:00;57,74
02.01.2022;07:45:00;51,9
02.01.2022;08:00:00;53,62
02.01.2022;08:15:00;53,2
02.01.2022;08:30:00;53,02
02.01.2022;08:45:00;58,3
02.01.2022;09:00:00;66,42
02.01.2022;09:15:00;70,52
02.01.2022;09:30:00;75,1
02.01.2022;09:45:00;76,02
02.01.2022;10:00:00;68,14
02.01.2022;10:15:00;78,42
02.01.2022;10:30:00;65,24
02.01.2022;10:45:00;61,26
02.01.2022;11:00:00;62,8
02.01.2022;11:15:00;56,12
02.01.2022;11:30:00;48,94
02.01.2022;11:45:00;51,3
02.01.2022;12:00:00;57,32
02.01.2022;12:15:00;62,12
02.01.2022;12:30:00;60,62
02.01.2022;12:45:00;56,42
02.01.2022;13:00:00;56,04
02.01.2022;13:15:00;50,54
02.01.2022;13:30:00;46,36
02.01.2022;13:45:00;47,76
02.01.2022;14:00:00;47,82
02.01.2022;14:15:00;48,16
02.01.2022;14:30:00;46,24
02.01.2022;14:45:00;56,56
02.01.2022;15:00:00;59,26
02.01.2022;15:15:00;49,7
02.01.2022;15:30:00;46,36
02.01.2022;15:45:00;47,78
02.01.2022;16:00:00;44,36
02.01.2022;16:15:00;42,5
02.01.2022;16:30:00;44,08
02.01.2022;16:45:00;45,34
02.01.2022;17:00:00;45,22
02.01.2022;17:15:00;47,44
02.01.2022;17:30:00;47,1
02.01.2022;17:45:00;50,9
02.01.2022;18:00:00;50,88
02.01.2022;18:15:00;51,8
02.01.2022;18:30:00;49,6
02.01.2022;18:45:00;50,42
02.01.2022;19:00:00;46,6
02.01.2022;19:15:00;42,82
02.01.2022;19:30:00;41,24
02.01.2022;19:45:00;44,82
02.01.2022;20:00:00;44,32
02.01.2022;20:15:00;44,64
02.01.2022;20:30:00;42,48
02.01.2022;20:45:00;40,94
02.01.2022;21:00:00;40,24
02.01.2022;21:15:00;38,08
02.01.2022;21:30:00;38,3
02.01.2022;21:45:00;40,1
02.01.2022;22:00:00;36,76
02.01.2022;22:15:00;35,76
02.01.2022;22:30:00;35,52
02.01.2022;22:45:00;34,96
02.01.2022;23:00:00;33,8
02.01.2022;23:15:00;34,5
02.01.2022;23:30:00;33,24
02.01.2022;23:45:00;33
03.01.2022;00:00:00;31,28
03.01.2022;00:15:00;29,96
03.01.2022;00:30:00;31,18
03.01.2022;00:45:00;31,22
03.01.2022;01:00:00;31,98
03.01.2022;01:15:00;31,54
03.01.2022;01:30:00;31,98
03.01.2022;01:45:00;32,32
03.01.2022;02:00:00;33,5
03.01.2022;02:15:00;33,68
03.01.2022;02:30:00;34,24
03.01.2022;02:45:00;35,08
03.01.2022;03:00:00;35,24
03.01.2022;03:15:00;35,9
03.01.2022;03:30:00;45,38
03.01.2022;03:45:00;63,76
03.01.2022;04:00:00;63,36
03.01.2022;04:15:00;40,34
03.01.2022;04:30:00;34,84
03.01.2022;04:45:00;36,92
03.01.2022;05:00:00;42,1
03.01.2022;05:15:00;44,94
03.01.2022;05:30:00;40,06
03.01.2022;05:45:00;39,96
03.01.2022;06:00:00;60,48
03.01.2022;06:15:00;52,24
03.01.2022;06:30:00;78,46
03.01.2022;06:45:00;105,26
03.01.2022;07:00:00;105,56
03.01.2022;07:15:00;85,5
03.01.2022;07:30:00;79,36
03.01.2022;07:45:00;82,38
03.01.2022;08:00:00;106,06
03.01.2022;08:15:00;117,2
03.01.2022;08:30:00;86,56
03.01.2022;08:45:00;95,6
03.01.2022;09:00:00;97,38
03.01.2022;09:15:00;113,64
03.01.2022;09:30:00;130,44
03.01.2022;09:45:00;113
03.01.2022;10:00:00;89,4
03.01.2022;10:15:00;97,44
03.01.2022;10:30:00;104,98
03.01.2022;10:45:00;101,46
03.01.2022;11:00:00;96,86
03.01.2022;11:15:00;98,02
03.01.2022;11:30:00;81,1
03.01.2022;11:45:00;90,26
03.01.2022;12:00:00;92,02
03.01.2022;12:15:00;92,32
03.01.2022;12:30:00;82,16
03.01.2022;12:45:00;68,66
03.01.2022;13:00:00;67,44
03.01.2022;13:15:00;68,4
03.01.2022;13:30:00;72
03.01.2022;13:45:00;83,5
03.01.2022;14:00:00;78,72
03.01.2022;14:15:00;81,48
03.01.2022;14:30:00;84,76
03.01.2022;14:45:00;93,1
03.01.2022;15:00:00;82,88
03.01.2022;15:15:00;73,7
03.01.2022;15:30:00;82,94
03.01.2022;15:45:00;68,6
03.01.2022;16:00:00;72,3
03.01.2022;16:15:00;79,08
03.01.2022;16:30:00;76,64
03.01.2022;16:45:00;71,86
03.01.2022;17:00:00;64,56
03.01.2022;17:15:00;51,02
03.01.2022;17:30:00;48,3
03.01.2022;17:45:00;48,38
03.01.2022;18:00:00;59,46
03.01.2022;18:15:00;51,86
03.01.2022;18:30:00;51,26
03.01.2022;18:45:00;50,86
03.01.2022;19:00:00;46,6
03.01.2022;19:15:00;45,58
03.01.2022;19:30:00;45,28
03.01.2022;19:45:00;42,6
03.01.2022;20:00:00;43,14
03.01.2022;20:15:00;41,58
03.01.2022;20:30:00;42,76
03.01.2022;20:45:00;46,2
03.01.2022;21:00:00;43,2
03.01.2022;21:15:00;38,38
03.01.2022;21:30:00;38,48
03.01.2022;21:45:00;40,04
03.01.2022;22:00:00;38,06
03.01.2022;22:15:00;37,14
03.01.2022;22:30:00;37,52
03.01.2022;22:45:00;35,26
03.01.2022;23:00:00;33,7
03.01.2022;23:15:00;33,82
03.01.2022;23:30:00;35,24
03.01.2022;23:45:00;36,78
04.01.2022;00:00:00;36,14
04.01.2022;00:15:00;34,9
04.01.2022;00:30:00;34,9
04.01.2022;00:45:00;37,14
04.01.2022;01:00:00;35,74
04.01.2022;01:15:00;36,68
04.01.2022;01:30:00;35,26
04.01.2022;01:45:00;36,14
04.01.2022;02:00:00;34,08
04.01.2022;02:15:00;34,62
04.01.2022;02:30:00;34,64
04.01.2022;02:45:00;35,88
04.01.2022;03:00:00;35,96
04.01.2022;03:15:00;44,94
04.01.2022;03:30:00;48,04
04.01.2022;03:45:00;56,9
04.01.2022;04:00:00;48,18
04.01.2022;04:15:00;38,78
04.01.2022;04:30:00;37,44
04.01.2022;04:45:00;36,52
04.01.2022;05:00:00;35,88
04.01.2022;05:15:00;35,04
04.01.2022;05:30:00;42,88
04.01.2022;05:45:00;42,58
04.01.2022;06:00:00;53,4
04.01.2022;06:15:00;56,16
04.01.2022;06:30:00;88,84
04.01.2022;06:45:00;105,66
04.01.2022;07:00:00;97,48
04.01.2022;07:15:00;79,44
04.01.2022;07:30:00;80,46
04.01.2022;07:45:00;82,6
04.01.2022;08:00:00;88,88
04.01.2022;08:15:00;105,1
04.01.2022;08:30:00;83
04.01.2022;08:45:00;90,16
04.01.2022;09:00:00;93,36
04.01.2022;09:15:00;102,06
04.01.2022;09:30:00;97,32
04.01.2022;09:45:00;101,14
04.01.2022;10:00:00;93,02
04.01.2022;10:15:00;86,5
04.01.2022;10:30:00;96,58
04.01.2022;10:45:00;101,38
04.01.2022;11:00:00;99,54
04.01.2022;11:15:00;91,56
04.01.2022;11:30:00;86,42
04.01.2022;11:45:00;82,26
04.01.2022;12:00:00;78,92
04.01.2022;12:15:00;89,22
04.01.2022;12:30:00;77,16
04.01.2022;12:45:00;85,96
04.01.2022;13:00:00;75,28
04.01.2022;13:15:00;68,64
04.01.2022;13:30:00;61,1
04.01.2022;13:45:00;55,48
04.01.2022;14:00:00;52,92
04.01.2022;14:15:00;52,94
04.01.2022;14:30:00;53,94
04.01.2022;14:45:00;68,06
04.01.2022;15:00:00;61,58
04.01.2022;15:15:00;54,92
04.01.2022;15:30:00;54,68
04.01.2022;15:45:00;56,52
04.01.2022;16:00:00;54
04.01.2022;16:15:00;50,64
04.01.2022;16:30:00;51,7
04.01.2022;16:45:00;52,8
04.01.2022;17:00:00;51,02
04.01.2022;17:15:00;49,88
04.01.2022;17:30:00;50,2
04.01.2022;17:45:00;47,98
04.01.2022;18:00:00;54,24
04.01.2022;18:15:00;56,94
04.01.2022;18:30:00;55,28
04.01.2022;18:45:00;53,2
04.01.2022;19:00:00;50,08
04.01.2022;19:15:00;46,42
04.01.2022;19:30:00;47,24
04.01.2022;19:45:00;45,2
04.01.2022;20:00:00;46,4
04.01.2022;20:15:00;57,68
04.01.2022;20:30:00;56,12
04.01.2022;20:45:00;56,98
04.01.2022;21:00:00;48,58
04.01.2022;21:15:00;40,76
04.01.2022;21:30:00;41,42
04.01.2022;21:45:00;41,32
04.01.2022;22:00:00;40,44
04.01.2022;22:15:00;39,1
04.01.2022;22:30:00;39,46
04.01.2022;22:45:00;39,08
04.01.2022;23:00:00;37,88
04.01.2022;23:15:00;39,12
04.01.2022;23:30:00;37,58
04.01.2022;23:45:00;42,06
05.01.2022;00:00:00;41,06
05.01.2022;00:15:00;36,98
05.01.2022;00:30:00;35,8
05.01.2022;00:45:00;37,9
05.01.2022;01:00:00;38,1
05.01.2022;01:15:00;37,44
05.01.2022;01:30:00;38,58
05.01.2022;01:45:00;39,16
05.01.2022;02:00:00;36,18
05.01.2022;02:15:00;36,38
05.01.2022;02:30:00;36,4
05.01.2022;02:45:00;39,34
05.01.2022;03:00:00;35,98
05.01.2022;03:15:00;42,6
05.01.2022;03:30:00;51,02
05.01.2022;03:45:00;56,68
05.01.2022;04:00:00;49,22
05.01.2022;04:15:00;40,24
05.01.2022;04:30:00;38,34
05.01.2022;04:45:00;40,14
05.01.2022;05:00:00;37,82
05.01.2022;05:15:00;39,84
05.01.2022;05:30:00;41,58
05.01.2022;05:45:00;43,28
05.01.2022;06:00:00;56,22
05.01.2022;06:15:00;70,46
05.01.2022;06:30:00;83,74
05.01.2022;06:45:00;106,22
05.01.2022;07:00:00;116,6
05.01.2022;07:15:00;97,6
05.01.2022;07:30:00;81,42
05.01.2022;07:45:00;98,7
05.01.2022;08:00:00;97,28
05.01.2022;08:15:00;120,12
05.01.2022;08:30:00;107,88
05.01.2022;08:45:00;111,68
05.01.2022;09:00:00;97
05.01.2022;09:15:00;102,66
05.01.2022;09:30:00;124,9
05.01.2022;09:45:00;103,26
05.01.2022;10:00:00;109,1
05.01.2022;10:15:00;110,1
05.01.2022;10:30:00;93,7
05.01.2022;10:45:00;108,3
05.01.2022;11:00:00;97,98
05.01.2022;11:15:00;88,94
05.01.2022;11:30:00;104,1
05.01.2022;11:45:00;101,06
05.01.2022;12:00:00;84,04
05.01.2022;12:15:00;109,16
05.01.2022;12:30:00;101,14
05.01.2022;12:45:00;80,56
05.01.2022;13:00:00;81,76
05.01.2022;13:15:00;77,22
05.01.2022;13:30:00;78,3
05.01.2022;13:45:00;78,02
05.01.2022;14:00:00;70,4
05.01.2022;14:15:00;65,4
05.01.2022;14:30:00;59,7
05.01.2022;14:45:00;61,1
05.01.2022;15:00:00;64,44
05.01.2022;15:15:00;65,28
05.01.2022;15:30:00;69,06
05.01.2022;15:45:00;61,46
05.01.2022;16:00:00;56,72
05.01.2022;16:15:00;54,74
05.01.2022;16:30:00;59,06
05.01.2022;16:45:00;69,42
05.01.2022;17:00:00;67,22
05.01.2022;17:15:00;55,82
05.01.2022;17:30:00;51,5
05.01.2022;17:45:00;55,28
05.01.2022;18:00:00;59,08
05.01.2022;18:15:00;61,02
05.01.2022;18:30:00;50,84
05.01.2022;18:45:00;50,14
05.01.2022;19:00:00;47,52
05.01.2022;19:15:00;47,96
05.01.2022;19:30:00;54,62
05.01.2022;19:45:00;54,6
05.01.2022;20:00:00;56,12
05.01.2022;20:15:00;46,42
05.01.2022;20:30:00;43,6
05.01.2022;20:45:00;43,98
05.01.2022;21:00:00;46,72
05.01.2022;21:15:00;48,1
05.01.2022;21:30:00;40,5
05.01.2022;21:45:00;40,86
05.01.2022;22:00:00;40,42
05.01.2022;22:15:00;36,8
05.01.2022;22:30:00;37,76
05.01.2022;22:45:00;37,1
05.01.2022;23:00:00;37,2
05.01.2022;23:15:00;36,24
05.01.2022;23:30:00;41,22
05.01.2022;23:45:00;38,98
06.01.2022;00:00:00;37,32
06.01.2022;00:15:00;35,54
06.01.2022;00:30:00;35,8
06.01.2022;00:45:00;37,62
06.01.2022;01:00:00;37,32
06.01.2022;01:15:00;37,78
06.01.2022;01:30:00;39,7
06.01.2022;01:45:00;36,28
06.01.2022;02:00:00;35,66
06.01.2022;02:15:00;36,5
06.01.2022;02:30:00;37,66
06.01.2022;02:45:00;36,58
06.01.2022;03:00:00;36,8
06.01.2022;03:15:00;36,1
06.01.2022;03:30:00;35,92
06.01.2022;03:45:00;40,08
06.01.2022;04:00:00;35,46
06.01.2022;04:15:00;36,46
06.01.2022;04:30:00;35,98
06.01.2022;04:45:00;36,34
06.01.2022;05:00:00;38,96
06.01.2022;05:15:00;39,16
06.01.2022;05:30:00;43,26
06.01.2022;05:45:00;63,58
06.01.2022;06:00:00;70,58
06.01.2022;06:15:00;50,76
06.01.2022;06:30:00;59,38
06.01.2022;06:45:00;56,36
06.01.2022;07:00:00;56,16
06.01.2022;07:15:00;50,44
06.01.2022;07:30:00;62,2
06.01.2022;07:45:00;67,26
06.01.2022;08:00:00;51,8
06.01.2022;08:15:00;56,44
06.01.2022;08:30:00;55,02
06.01.2022;08:45:00;61,92
06.01.2022;09:00:00;67,6
06.01.2022;09:15:00;80,26
06.01.2022;09:30:00;73,92
06.01.2022;09:45:00;72,72
06.01.2022;10:00:00;77,96
06.01.2022;10:15:00;76,62
06.01.2022;10:30:00;64,32
06.01.2022;10:45:00;66,68
06.01.2022;11:00:00;67,24
06.01.2022;11:15:00;68,14
06.01.2022;11:30:00;62,36
06.01.2022;11:45:00;63,1
06.01.2022;12:00:00;54,98
06.01.2022;12:15:00;63,14
06.01.2022;12:30:00;57,22
06.01.2022;12:45:00;57,86
06.01.2022;13:00:00;51,5
06.01.2022;13:15:00;46,76
06.01.2022;13:30:00;50,4
06.01.2022;13:45:00;56,32
06.01.2022;14:00:00;53,88
06.01.2022;14:15:00;52,08
06.01.2022;14:30:00;46,86
06.01.2022;14:45:00;55,52
06.01.2022;15:00:00;44,6
06.01.2022;15:15:00;42,76
06.01.2022;15:30:00;43,08
06.01.2022;15:45:00;45
06.01.2022;16:00:00;44,3
06.01.2022;16:15:00;43,82
06.01.2022;16:30:00;46,14
06.01.2022;16:45:00;55,1
06.01.2022;17:00:00;56,9
06.01.2022;17:15:00;63,54
06.01.2022;17:30:00;61,1
06.01.2022;17:45:00;50,74
06.01.2022;18:00:00;54,42
06.01.2022;18:15:00;58,1
06.01.2022;18:30:00;49,18
06.01.2022;18:45:00;51,46
06.01.2022;19:00:00;47,28
06.01.2022;19:15:00;46,64
06.01.2022;19:30:00;44,72
06.01.2022;19:45:00;45,6
06.01.2022;20:00:00;53,16
06.01.2022;20:15:00;50,88
06.01.2022;20:30:00;45,58
06.01.2022;20:45:00;44,64
06.01.2022;21:00:00;41,42
06.01.2022;21:15:00;48,12
06.01.2022;21:30:00;52,8
06.01.2022;21:45:00;44,24
06.01.2022;22:00:00;39,04
06.01.2022;22:15:00;38,78
06.01.2022;22:30:00;42,8
06.01.2022;22:45:00;42,12
06.01.2022;23:00:00;37,3
06.01.2022;23:15:00;36,32
06.01.2022;23:30:00;36,86
06.01.2022;23:45:00;37,92
07.01.2022;00:00:00;37,62
07.01.2022;00:15:00;36,16
07.01.2022;00:30:00;36,8
07.01.2022;00:45:00;36,44
07.01.2022;01:00:00;36,92
07.01.2022;01:15:00;37,9
07.01.2022;01:30:00;38,3
07.01.2022;01:45:00;35,92
07.01.2022;02:00:00;36,76
07.01.2022;02:15:00;36,68
07.01.2022;02:30:00;35,76
07.01.2022;02:45:00;35,82
07.01.2022;03:00:00;35,9
07.01.2022;03:15:00;36,46
07.01.2022;03:30:00;49,72
07.01.2022;03:45:00;63,8
07.01.2022;04:00:00;65,32
07.01.2022;04:15:00;45,18
07.01.2022;04:30:00;39,02
07.01.2022;04:45:00;39,5
07.01.2022;05:00:00;36,94
07.01.2022;05:15:00;36,08
07.01.2022;05:30:00;51,8
07.01.2022;05:45:00;65,82
07.01.2022;06:00:00;51,02
07.01.2022;06:15:00;53,04
07.01.2022;06:30:00;54,34
07.01.2022;06:45:00;62,94
07.01.2022;07:00:00;78,16
07.01.2022;07:15:00;76,1
07.01.2022;07:30:00;114,44
07.01.2022;07:45:00;122,6
07.01.2022;08:00:00;108,1
07.01.2022;08:15:00;123,38
07.01.2022;08:30:00;104,68
07.01.2022;08:45:00;99,88
07.01.2022;09:00:00;127,44
07.01.2022;09:15:00;113,86
07.01.2022;09:30:00;107,14
07.01.2022;09:45:00;114,68
07.01.2022;10:00:00;123,46
07.01.2022;10:15:00;112,88
07.01.2022;10:30:00;111,36
07.01.2022;10:45:00;104,54
07.01.2022;11:00:00;109,5
07.01.2022;11:15:00;104,72
07.01.2022;11:30:00;90,94
07.01.2022;11:45:00;70,94
07.01.2022;12:00:00;65,64
07.01.2022;12:15:00;75,02
07.01.2022;12:30:00;67,46
07.01.2022;12:45:00;71,4
07.01.2022;13:00:00;62,24
07.01.2022;13:15:00;65,42
07.01.2022;13:30:00;60,9
07.01.2022;13:45:00;68,04
07.01.2022;14:00:00;91,82
07.01.2022;14:15:00;85,44
07.01.2022;14:30:00;72,8
07.01.2022;14:45:00;83
07.01.2022;15:00:00;90,16
07.01.2022;15:15:00;93,6
07.01.2022;15:30:00;90,5
07.01.2022;15:45:00;84,54
07.01.2022;16:00:00;75,66
07.01.2022;16:15:00;56,22
07.01.2022;16:30:00;55,8
07.01.2022;16:45:00;57,64
07.01.2022;17:00:00;84,28
07.01.2022;17:15:00;78,26
07.01.2022;17:30:00;78,18
07.01.2022;17:45:00;83,64
07.01.2022;18:00:00;80,32
07.01.2022;18:15:00;68,94
07.01.2022;18:30:00;54,96
07.01.2022;18:45:00;50,06
07.01.2022;19:00:00;52,4
07.01.2022;19:15:00;47,94
07.01.2022;19:30:00;47,02
07.01.2022;19:45:00;46,38
07.01.2022;20:00:00;47,02
07.01.2022;20:15:00;47,82
07.01.2022;20:30:00;46,14
07.01.2022;20:45:00;46,98
07.01.2022;21:00:00;45,58
07.01.2022;21:15:00;44,1
07.01.2022;21:30:00;49,88
07.01.2022;21:45:00;56,24
07.01.2022;22:00:00;43,24
07.01.2022;22:15:00;41,28
07.01.2022;22:30:00;41,8
07.01.2022;22:45:00;41,08
07.01.2022;23:00:00;42,68
07.01.2022;23:15:00;40,76
07.01.2022;23:30:00;41,12
07.01.2022;23:45:00;40,48
08.01.2022;00:00:00;40,26
08.01.2022;00:15:00;41,44
08.01.2022;00:30:00;40,36
08.01.2022;00:45:00;39,68
08.01.2022;01:00:00;41,24
08.01.2022;01:15:00;40,5
08.01.2022;01:30:00;41,14
08.01.2022;01:45:00;40,32
08.01.2022;02:00:00;39,72
08.01.2022;02:15:00;40,68
08.01.2022;02:30:00;39,06
08.01.2022;02:45:00;39,92
08.01.2022;03:00:00;39,76
08.01.2022;03:15:00;39,52
08.01.2022;03:30:00;40
08.01.2022;03:45:00;40,38
08.01.2022;04:00:00;44,42
08.01.2022;04:15:00;50,14
08.01.2022;04:30:00;41,36
08.01.2022;04:45:00;41,82
08.01.2022;05:00:00;41,18
08.01.2022;05:15:00;42,54
08.01.2022;05:30:00;45,4
08.01.2022;05:45:00;46,02
08.01.2022;06:00:00;54,36
08.01.2022;06:15:00;55,3
08.01.2022;06:30:00;57,92
08.01.2022;06:45:00;56,62
08.01.2022;07:00:00;61,9
08.01.2022;07:15:00;62
08.01.2022;07:30:00;65,9
08.01.2022;07:45:00;68,1
08.01.2022;08:00:00;66,04
08.01.2022;08:15:00;71,54
08.01.2022;08:30:00;71,48
08.01.2022;08:45:00;69,28
08.01.2022;09:00:00;68,46
08.01.2022;09:15:00;70,08
08.01.2022;09:30:00;75,32
08.01.2022;09:45:00;69,94
08.01.2022;10:00:00;77,48
08.01.2022;10:15:00;80,06
08.01.2022;10:30:00;80,68
08.01.2022;10:45:00;74,98
08.01.2022;11:00:00;64,66
08.01.2022;11:15:00;59,36
08.01.2022;11:30:00;59,14
08.01.2022;11:45:00;61,08
08.01.2022;12:00:00;57,96
08.01.2022;12:15:00;71,54
08.01.2022;12:30:00;62,8
08.01.2022;12:45:00;53,04
08.01.2022;13:00:00;48,9
08.01.2022;13:15:00;60,68
08.01.2022;13:30:00;55,98
08.01.2022;13:45:00;50,2
08.01.2022;14:00:00;53,58
08.01.2022;14:15:00;50,08
08.01.2022;14:30:00;59,18
08.01.2022;14:45:00;72,6
08.01.2022;15:00:00;63,68
08.01.2022;15:15:00;59,96
08.01.2022;15:30:00;51,66
08.01.2022;15:45:00;49,84
08.01.2022;16:00:00;49,06
08.01.2022;16:15:00;49,98
08.01.2022;16:30:00;52,06
08.01.2022;16:45:00;54,78
08.01.2022;17:00:00;57,14
08.01.2022;17:15:00;53,42
08.01.2022;17:30:00;53,22
08.01.2022;17:45:00;53,3
08.01.2022;18:00:00;61,02
08.01.2022;18:15:00;56,4
08.01.2022;18:30:00;53,7
08.01.2022;18:45:00;64,02
08.01.2022;19:00:00;60,8
08.01.2022;19:15:00;47,72
08.01.2022;19:30:00;43,92
08.01.2022;19:45:00;42,94
08.01.2022;20:00:00;45,16
08.01.2022;20:15:00;55,42
08.01.2022;20:30:00;43,44
08.01.2022;20:45:00;45,02
08.01.2022;21:00:00;43,3
08.01.2022;21:15:00;40,52
08.01.2022;21:30:00;40,32
08.01.2022;21:45:00;40,34
08.01.2022;22:00:00;39,86
08.01.2022;22:15:00;37,12
08.01.2022;22:30:00;37,08
08.01.2022;22:45:00;37,26
08.01.2022;23:00:00;37,34
08.01.2022;23:15:00;38,72
08.01.2022;23:30:00;39,28
08.01.2022;23:45:00;47,58
09.01.2022;00:00:00;36,56
09.01.2022;00:15:00;35,9
09.01.2022;00:30:00;36,6
09.01.2022;00:45:00;45,3
09.01.2022;01:00:00;48,32
09.01.2022;01:15:00;49,82
09.01.2022;01:30:00;49,18
09.01.2022;01:45:00;44,24
09.01.2022;02:00:00;37,54
09.01.2022;02:15:00;37,38
09.01.2022;02:30:00;36,18
09.01.2022;02:45:00;35,96
09.01.2022;03:00:00;35,12
09.01.2022;03:15:00;37,54
09.01.2022;03:30:00;36,34
09.01.2022;03:45:00;35,44
09.01.2022;04:00:00;36,28
09.01.2022;04:15:00;36,3
09.01.2022;04:30:00;37,52
09.01.2022;04:45:00;38,66
09.01.2022;05:00:00;35,96
09.01.2022;05:15:00;40,76
09.01.2022;05:30:00;39,76
09.01.2022;05:45:00;39
09.01.2022;06:00:00;53,52
09.01.2022;06:15:00;53,26
09.01.2022;06:30:00;49,94
09.01.2022;06:45:00;51,44
09.01.2022;07:00:00;58,96
09.01.2022;07:15:00;72,96
09.01.2022;07:30:00;64,52
09.01.2022;07:45:00;62,7
09.01.2022;08:00:00;59,78
09.01.2022;08:15:00;71,5
09.01.2022;08:30:00;61,86
09.01.2022;08:45:00;83,26
09.01.2022;09:00:00;71,62
09.01.2022;09:15:00;73,72
09.01.2022;09:30:00;73,1
09.01.2022;09:45:00;67,44
09.01.2022;10:00:00;67,84
09.01.2022;10:15:00;81,84
09.01.2022;10:30:00;75,8
09.01.2022;10:45:00;69,04
09.01.2022;11:00:00;65,52
09.01.2022;11:15:00;70,92
09.01.2022;11:30:00;63,86
09.01.2022;11:45:00;67,48
09.01.2022;12:00:00;65,44
09.01.2022;12:15:00;62,08
09.01.2022;12:30:00;60,94
09.01.2022;12:45:00;59,92
09.01.2022;13:00:00;61,06
09.01.2022;13:15:00;63,48
09.01.2022;13:30:00;52,58
09.01.2022;13:45:00;45,34
09.01.2022;14:00:00;51,46
09.01.2022;14:15:00;47,36
09.01.2022;14:30:00;58,72
09.01.2022;14:45:00;63,36
09.01.2022;15:00:00;61,84
09.01.2022;15:15:00;58,96
09.01.2022;15:30:00;56,7
09.01.2022;15:45:00;54,78
09.01.2022;16:00:00;45,44
09.01.2022;16:15:00;50,02
09.01.2022;16:30:00;46,7
09.01.2022;16:45:00;56,94
09.01.2022;17:00:00;59,06
09.01.2022;17:15:00;55,02
09.01.2022;17:30:00;48,28
09.01.2022;17:45:00;51,5
09.01.2022;18:00:00;52,1
09.01.2022;18:15:00;67,46
09.01.2022;18:30:00;63,82
09.01.2022;18:45:00;62,74
09.01.2022;19:00:00;52,76
09.01.2022;19:15:00;45,12
09.01.2022;19:30:00;42,1
09.01.2022;19:45:00;44,66
09.01.2022;20:00:00;45,5
09.01.2022;20:15:00;43,62
09.01.2022;20:30:00;43,38
09.01.2022;20:45:00;43,54
09.01.2022;21:00:00;41,64
09.01.2022;21:15:00;40,5
09.01.2022;21:30:00;40,28
09.01.2022;21:45:00;42,12
09.01.2022;22:00:00;39,62
09.01.2022;22:15:00;36,8
09.01.2022;22:30:00;37,68
09.01.2022;22:45:00;37,66
09.01.2022;23:00:00;36,48
09.01.2022;23:15:00;36,44
09.01.2022;23:30:00;36,24
09.01.2022;23:45:00;37,34
10.01.2022;00:00:00;37,56
10.01.2022;00:15:00;38,7
10.01.2022;00:30:00;36,46
10.01.2022;00:45:00;36,3
10.01.2022;01:00:00;36,98
10.01.2022;01:15:00;36,56
10.01.2022;01:30:00;38,38
10.01.2022;01:45:00;36,44
10.01.2022;02:00:00;35,84
10.01.2022;02:15:00;43,78
10.01.2022;02:30:00;44,14
10.01.2022;02:45:00;36,88
10.01.2022;03:00:00;35,38
10.01.2022;03:15:00;35,7
10.01.2022;03:30:00;49,32
10.01.2022;03:45:00;65,8
10.01.2022;04:00:00;65,34
10.01.2022;04:15:00;43,82
10.01.2022;04:30:00;38,4
10.01.2022;04:45:00;38,76
10.01.2022;05:00:00;36,92
10.01.2022;05:15:00;39,5
10.01.2022;05:30:00;44,16
10.01.2022;05:45:00;45,62
10.01.2022;06:00:00;52,14
10.01.2022;06:15:00;60,6
10.01.2022;06:30:00;72,16
10.01.2022;06:45:00;72,6
10.01.2022;07:00:00;93,92
10.01.2022;07:15:00;117,06
10.01.2022;07:30:00;106,2